Find Nimbus 5

NORAD ID: 6305 Int'l Des: 1972-097 Owner: GSFC Country: US operational
LEOCIRCULARRETROGRADESSO

Live-Position

3D-Globus wird geladen...

Über Nimbus 5

Beschreibung wird geladen...

Nächste Überflüge

Passes for default location (London). Set your location on the main map for personalized predictions.

Höhenverlauf

Loading altitude history...

Zweizeiliger Elementsatz

1 06305U 72097A 26106.67417660 -.00000019 00000-0 42221-4 0 9997
2 06305 99.8136 7.0603 0007802 303.6180 110.0554 13.44253243616466
Epoch: 16. Apr. 2026 • Age: 18 hours

Aktueller Status

Höhe 1111.8 km
Geschwindigkeit 7.30 km/s
Subsatellitenpunkt 80.19°N, 86.76°W
Typ other

Most Searched